Flag for U.S.A. Weather past 2 weeks in Aspen, Colorado, U.S.A.

Now
51 °F

Overcast.


Feels Like: 48 °F
Forecast: 40 / 63 °F
Wind: 9 mph from Northwest

Location: Lake County Airport

Current Time: May 27, 2015 at 10:15:03 AM

Latest Report: May 27, 2015 at 9:53 AM


Visibility: 10 mi

Pressure: 29.93 "Hg

Humidity: 42%

Dew point: 29 °F

Location of AspenLocation

Historic Weather in Aspen — Graph

°F

Aspen temperature yesterday

Maximum temperature yesterday: 53 °F (at 2:53 PM)
Minimum temperature yesterday: 33 °F (at 12:53 AM)
Average temperature yesterday: 40 °F

Past Weeks' High & Low Weather Summary

 TemperatureHumidityPressure
High53 °F (May 12, 12:53 PM)100% (May 18, 5:53 PM)30.29 "Hg (May 18, 5:53 PM)
Low19 °F (May 16, 5:53 AM)28% (May 12, 2:53 PM)29.53 "Hg (May 16, 12:53 PM)
Average37 °F73%29.88 "Hg
* Reported May 12 8:53 AM — May 27 8:53 AM, Aspen, Weather by CustomWeather, © 2015

Note: Actual official high and low records may vary slightly from our data, if they occured in-between our weather recording intervals... More about our weather records

Advertising

Aspen weather history for previous 24 hours

 ConditionsComfort  
Time TempWeatherWind HumidityBarometerVisibility
8:53 AM
Wed, May 27
45 °FOvercast.5 mph53%29.96 "Hg10 mi
7:53 AM38 °FMostly cloudy.No wind79%29.99 "Hg10 mi
6:53 AM35 °FOvercast.3 mph92%29.99 "Hg10 mi
5:53 AM36 °FMostly cloudy.No wind89%29.95 "Hg10 mi
4:53 AM35 °FMostly cloudy.5 mph85%29.94 "Hg10 mi
3:53 AM35 °FMostly cloudy.No wind88%29.92 "Hg10 mi
2:53 AM37 °FPassing clouds.3 mph79%29.89 "Hg10 mi
1:53 AM35 °FMostly cloudy.3 mph88%29.90 "Hg10 mi
12:53 AM35 °FMostly cloudy.5 mph82%29.93 "Hg10 mi
11:53 PM
Tue, May 26
33 °FClear.No wind92%29.99 "Hg10 mi
10:53 PM36 °FClear.9 mph85%29.97 "Hg10 mi
9:53 PM37 °FClear.7 mph89%29.97 "Hg10 mi
8:53 PM39 °FPassing clouds.3 mph86%29.98 "Hg10 mi
7:53 PM41 °FMore clouds than sun.6 mph76%29.95 "Hg10 mi
6:53 PM44 °FCloudy.15 mph63%29.93 "Hg10 mi
5:53 PM47 °FPartly sunny.10 mph56%29.90 "Hg10 mi
4:53 PM49 °FScattered clouds.16 mph50%29.88 "Hg10 mi
4:00 PM51 °FOvercast.10 mph46%30.21 "Hg10 mi
2:53 PM53 °FOvercast.15 mph41%29.86 "Hg10 mi
1:53 PM52 °FScattered clouds.12 mph38%29.86 "Hg10 mi
12:53 PM48 °FScattered clouds.10 mph48%29.90 "Hg10 mi
11:53 AM43 °FMostly cloudy.12 mph65%29.97 "Hg10 mi
10:53 AM43 °FOvercast.10 mph68%29.95 "Hg10 mi
Weather by CustomWeather, © 2015

See weather overviewHow to use our weather pages